SCP
2 3 3 2 1 1 1 1 1 1 1 1 1 1 0 0 0 0 1 1 1 1 1 1 1 1 0 0 0 0 0 0 0 0 0 0 0 0 0 0 0 0 0
3 3 3 2 2 1 1 1 1 1 1 1 1 1 1 1 0 1 1 1 1 1 1 1 1 1 1 0 0 0 0 0 0 0 0 0 0 0 0 0 0 0 0
4 4 4 3 2 2 1 1 1 1 1 1 1 1 1 1 1 1 1 1 1 1 1 1 2 1 1 1 0 0 0 0 0 0 0 0 0 0 0 0 0 0 0
4 4 4 3 2 2 1 1 1 1 1 1 1 1 1 1 1 1 1 1 1 1 1 2 2 2 2 1 1 1 0 0 0 0 0 0 0 0 0 0 0 0 0
4 4 3 2 2 2 1 1 1 1 1 1 1 1 1 1 1 1 1 1 1 1 1 2 2 2 2 2 2 1 1 0 0 0 0 0 0 0 0 0 0 0 0
4 4 3 2 2 2 1 1 1 1 1 1 1 1 1 1 1 1 1 1 1 1 1 2 2 2 2 2 2 2 1 1 0 0 0 0 0 0 0 0 0 0 0
4 3 2 2 2 2 1 1 1 1 1 1 1 1 1 1 1 1 1 1 1 2 2 2 2 2 2 2 2 2 2 1 1 0 1 1 1 1 0 0 0 0 0
3 3 2 2 2 2 1 1 1 1 1 1 1 1 1 1 1 1 1 2 2 2 2 2 2 2 2 2 2 2 2 1 1 1 1 1 1 1 1 0 0 0 0
2 2 2 2 2 2 2 1 1 1 2 2 1 1 1 1 1 2 2 2 2 2 2 2 3 3 3 2 2 2 2 1 1 1 1 1 1 1 1 1 0 0 0
2 2 2 3 3 3 2 2 2 2 2 2 2 2 2 1 1 2 2 2 2 1 1 2 3 4 4 3 2 2 1 1 1 1 1 1 1 1 1 1 0 0 0
1 2 2 2 3 3 3 3 3 2 2 3 2 2 2 2 2 2 2 2 1 1 1 2 3 4 4 4 3 2 1 1 1 1 1 1 1 0 1 1 0 0 0
2 2 2 2 2 3 3 3 3 3 3 3 3 2 2 2 2 2 2 1 1 1 1 2 2 2 3 3 2 2 2 1 1 1 1 1 1 1 1 1 0 0 0
3 2 2 2 3 3 3 3 2 3 3 3 3 2 2 2 2 2 2 2 2 2 2 2 2 2 2 2 2 2 1 1 1 1 1 1 1 1 1 1 1 1 1
3 3 2 3 3 4 4 3 2 3 3 3 3 2 2 2 2 2 2 2 2 2 2 2 2 2 2 2 2 2 1 1 1 1 1 1 1 1 1 1 1 1 1
3 2 2 3 3 5 5 4 3 3 3 3 3 3 2 2 2 2 2 2 2 2 2 2 2 3 2 2 2 2 2 1 1 1 1 1 1 1 1 1 1 1 1
2 2 2 3 3 5 6 5 4 4 4 3 3 3 3 2 2 2 2 2 2 2 2 2 2 3 2 2 2 2 2 2 2 1 1 2 2 2 1 1 1 1 1
2 2 3 3 3 5 6 6 5 5 5 4 3 3 3 3 2 2 2 2 3 3 3 3 3 3 2 2 2 2 2 2 2 2 2 2 2 2 2 2 1 1 1
2 3 3 3 3 5 6 6 6 5 5 4 3 3 3 3 2 2 2 2 3 3 3 4 3 3 2 2 1 1 2 3 3 3 3 3 3 3 3 2 2 1 1
3 3 3 3 3 4 6 6 6 6 5 4 4 3 3 3 2 2 2 2 2 2 3 4 4 3 2 2 1 1 2 2 3 3 4 4 4 4 3 2 2 2 2
3 3 3 3 3 3 4 5 6 7 6 5 5 4 3 3 3 3 2 2 2 2 3 4 3 2 2 1 1 1 2 2 2 3 3 4 4 3 2 2 2 2 2
4 4 4 3 3 3 4 5 6 7 7 7 6 5 5 4 3 3 3 2 2 2 3 3 3 2 2 1 1 1 2 2 2 2 3 3 3 2 1 2 2 2 2
4 4 4 4 3 4 5 5 6 7 8 8 8 7 6 5 4 3 2 2 2 3 3 3 2 2 1 1 1 1 1 1 1 2 2 2 2 1 0 1 1 2 1
5 4 4 5 4 4 4 5 5 6 8 9 9 8 7 6 5 4 3 1 2 3 3 2 1 1 1 1 1 1 1 1 1 1 1 2 1 1 0 0 0 1 0
5 4 4 5 5 4 4 4 5 6 8 9 9 9 8 7 6 4 3 2 2 3 3 2 1 1 1 1 2 1 1 1 1 1 1 1 0 0 0 0 0 0 0
5 4 5 5 5 5 4 4 5 7 9 9 8 8 8 8 7 5 3 1 1 2 3 2 1 1 1 1 1 1 1 1 1 1 1 1 0 0 0 0 0 0 0
5 5 5 5 5 4 4 5 6 7 9 9 8 7 7 7 7 5 2 1 1 2 2 1 1 1 1 1 1 0 1 1 1 1 1 1 1 0 0 0 0 0 0
Wind_Speed
6 5 6 6 6 5 4 4 4 3 3 2 1 1 1 1 1 1 2 2 2 2 2 2 2 2 2 2 2 2 2 1 2 2 1 2 1 1 0 0 0 1 1
5 6 6 6 7 6 6 5 4 4 3 2 2 2 1 1 1 1 1 1 2 2 3 3 2 2 2 2 2 2 1 1 2 2 1 0 2 2 1 1 1 0 0
9 8 8 7 7 7 7 6 5 5 4 3 2 1 1 1 1 1 1 1 1 2 2 2 2 2 2 2 2 3 3 2 1 2 3 2 2 0 1 2 1 1 1
9 8 9 9 9 8 7 6 5 4 4 4 3 3 2 2 2 1 1 1 1 1 1 1 2 2 2 2 3 3 3 3 2 1 1 2 3 2 0 1 2 2 2
10 10 11 10 9 8 7 6 5 4 4 4 5 4 3 2 1 1 1 1 1 1 1 1 1 2 2 2 3 2 3 3 3 2 2 1 1 2 2 1 0 1 1
10 10 9 7 7 6 6 6 5 4 4 4 4 4 4 3 2 2 1 1 1 1 1 1 1 1 1 2 2 2 2 2 2 2 2 2 2 2 3 3 2 1 1
10 10 10 9 9 8 8 6 6 5 5 5 4 4 4 3 3 2 2 2 1 1 2 1 1 1 1 1 1 1 1 2 2 2 1 2 2 2 3 3 2 1 0
9 10 11 10 10 9 8 7 7 6 5 5 4 3 3 2 2 2 2 2 1 2 1 0 0 0 0 0 1 0 1 1 1 2 2 2 2 2 3 3 4 2 1
9 9 9 9 8 9 8 8 7 6 5 5 4 3 3 2 2 1 1 1 1 0 1 1 1 1 1 1 1 1 0 0 1 1 1 1 1 2 2 2 3 4 3
7 8 8 8 8 7 6 6 6 6 5 4 4 3 2 2 2 1 1 1 1 1 2 2 1 1 1 1 2 1 1 1 1 0 0 1 1 1 2 2 2 2 3
7 7 7 7 7 6 6 6 5 4 4 4 3 3 2 2 2 2 2 1 1 2 2 2 2 2 1 1 2 1 1 1 1 1 1 0 1 2 2 2 2 2 3
5 5 6 6 7 7 6 6 6 4 4 4 4 3 2 3 3 2 1 2 2 2 2 2 2 2 2 1 2 1 1 1 0 0 1 1 1 2 2 2 3 2 2
4 5 5 6 7 7 6 6 6 5 4 5 5 4 3 3 3 2 2 3 3 3 3 3 2 2 2 2 2 1 1 1 0 0 1 1 2 2 2 2 3 2 2
5 5 5 5 6 6 6 6 6 5 5 5 5 4 4 3 3 3 3 3 4 3 3 3 2 2 2 2 2 2 2 2 2 2 2 1 2 2 2 2 3 3 3
5 6 6 5 6 6 6 6 6 5 6 6 5 4 4 4 3 3 4 4 4 3 3 3 3 2 2 2 2 2 2 2 3 3 3 2 3 3 2 2 3 4 3
6 6 6 6 7 7 7 7 6 6 6 7 6 5 4 4 4 4 4 4 3 3 3 3 3 3 2 3 3 3 3 3 3 3 2 3 3 4 5 5 5 5 4
6 7 7 7 7 7 7 7 7 7 7 6 6 5 5 5 4 4 4 3 3 3 3 3 3 2 3 4 4 5 4 3 3 3 2 2 3 4 4 6 7 6 5
6 6 5 5 5 5 6 6 7 7 7 6 5 5 5 5 4 4 4 3 2 3 2 2 2 2 3 4 5 6 5 4 4 3 3 3 3 3 4 5 5 5 4
5 5 5 5 5 6 7 8 7 7 7 6 6 5 6 6 5 5 4 3 3 3 2 2 2 2 2 4 4 5 4 4 4 3 3 3 3 4 6 6 6 5 4
5 5 5 5 6 6 7 9 8 8 7 7 6 6 6 6 6 5 4 3 3 3 3 3 2 2 2 2 4 4 3 3 2 3 3 4 4 5 6 5 5 4 2
5 6 6 5 5 7 7 7 8 8 7 6 6 6 5 6 5 5 4 4 4 4 3 3 2 2 2 2 4 4 3 2 2 2 1 2 4 5 5 4 3 3 3
5 6 5 4 5 6 8 7 7 7 6 7 6 6 5 5 5 6 5 4 5 4 3 2 2 1 2 2 2 3 3 2 2 1 1 1 4 4 4 3 4 5 5
5 4 4 4 4 5 7 8 6 6 7 7 7 6 6 5 5 6 6 4 4 3 3 2 2 0 1 1 2 2 2 3 2 1 2 3 4 5 4 4 4 4 3
5 5 5 4 3 4 4 5 6 7 8 8 7 6 6 5 4 4 4 4 4 4 3 3 2 1 1 0 1 1 1 2 2 2 4 5 6 5 4 4 3 2 2
4 5 6 6 5 4 4 5 7 8 8 8 7 6 6 6 5 4 3 4 4 4 5 4 4 4 3 3 3 3 2 2 2 3 3 3 3 3 2 2 2 1 1
4 5 5 5 4 5 5 5 7 8 9 8 7 6 5 5 5 4 2 2 2 3 4 4 4 3 3 4 4 4 3 4 5 4 2 2 2 2 2 1 1 1 1
Wind_Direction
197 180 172 168 161 170 175 180 178 177 154 138 148 158 220 242 241 239 239 229 216 203 193 205 213 194 191 201 180 156 149 151 133 102 59 21 39 72 96 178 152 183 211
189 182 176 175 176 183 187 188 191 187 183 173 167 174 178 203 208 254 283 242 224 213 204 200 207 203 198 204 184 162 159 178 159 146 136 342 3 27 24 86 126 162 95
196 188 183 185 185 191 192 194 195 193 191 173 134 101 72 35 29 335 296 285 247 227 217 210 206 200 194 211 214 189 182 194 199 173 162 170 211 344 13 34 57 63 65
198 190 187 188 191 196 191 193 191 188 188 170 164 166 171 196 221 223 248 288 286 272 241 220 213 211 202 213 226 206 201 185 201 201 206 196 163 164 142 29 42 57 53
196 194 194 194 191 187 184 186 182 187 186 180 180 179 189 198 201 207 240 276 290 282 270 229 207 215 217 222 224 211 198 196 200 192 180 184 178 172 174 201 120 58 49
196 193 193 185 183 181 180 175 180 195 188 183 186 187 191 192 199 219 234 258 275 285 275 233 210 220 222 226 225 213 199 201 196 187 179 179 178 185 180 195 196 167 44
192 188 184 185 185 184 183 178 184 197 192 184 191 198 194 192 205 218 222 238 267 280 271 249 226 228 227 223 206 186 196 190 183 191 199 204 208 172 164 166 176 161 24
192 191 188 186 188 185 182 182 187 195 192 189 192 193 190 190 208 214 214 222 235 249 249 206 234 267 255 211 124 133 187 163 183 201 200 199 204 178 175 169 160 151 122
190 187 182 182 183 182 185 185 185 188 191 188 181 180 186 192 206 213 205 223 237 210 85 89 86 52 53 61 77 70 36 97 168 207 202 201 197 180 186 169 165 163 174
184 178 177 179 179 177 173 168 172 178 182 168 173 179 180 187 190 166 161 134 95 66 73 68 72 69 69 76 83 68 38 65 8 341 124 178 176 160 154 157 154 154 159
183 180 175 172 167 160 160 164 167 166 165 163 162 162 160 149 133 133 136 135 105 88 81 76 71 65 66 71 86 77 66 76 38 31 72 38 131 137 138 134 131 136 145
173 166 159 154 156 160 162 164 167 164 171 159 153 154 136 125 127 126 120 112 103 91 92 86 76 63 55 56 78 70 51 82 64 1 104 89 99 110 125 133 137 142 149
148 147 149 156 162 162 165 167 171 167 164 154 152 146 138 133 131 122 103 101 99 89 82 80 76 66 59 50 53 67 60 64 35 89 119 112 107 98 108 127 134 136 133
151 148 155 163 162 162 164 165 164 160 153 144 144 146 150 145 134 120 109 102 100 96 89 82 75 71 64 55 54 66 65 61 52 55 74 90 117 134 129 131 137 131 125
164 165 163 166 164 162 164 164 160 154 150 143 147 152 142 127 118 112 108 104 102 100 95 86 70 61 64 54 63 79 82 77 67 56 57 71 91 97 113 129 139 137 133
180 178 171 167 171 172 170 166 161 155 149 148 150 143 134 129 125 122 115 108 102 97 89 80 73 61 56 60 83 98 90 83 81 72 60 68 67 80 87 104 117 131 139
185 181 183 182 179 174 168 169 162 150 147 148 146 144 142 140 141 135 121 116 112 104 94 85 81 71 58 69 79 89 95 85 76 72 67 67 64 79 92 88 83 82 90
184 182 178 177 169 160 155 150 145 147 148 147 149 152 151 148 142 135 131 122 111 104 96 90 92 84 67 76 86 92 84 75 66 65 77 89 78 86 102 99 86 77 71
174 173 172 166 158 156 153 143 144 148 149 156 162 161 157 155 153 153 149 140 129 111 97 92 93 88 67 76 96 97 88 77 60 53 61 87 89 87 100 102 98 84 66
157 156 149 143 148 154 150 147 152 156 167 172 171 161 156 156 160 158 148 139 131 123 117 95 84 90 78 71 95 99 96 85 67 54 51 67 90 95 102 109 111 103 82
156 150 146 148 157 151 151 158 160 172 175 163 153 151 155 156 153 142 137 136 127 120 113 103 79 69 64 70 80 94 103 115 105 83 62 51 87 95 96 102 109 122 118
146 151 148 154 152 151 154 167 179 172 157 150 149 151 152 153 146 140 137 135 134 130 125 116 89 53 52 74 85 91 96 117 123 135 131 91 101 98 101 104 108 110 107
147 143 146 148 147 155 164 174 179 154 147 148 153 153 148 145 147 149 147 140 141 144 146 145 144 121 42 50 72 90 95 109 106 101 133 120 114 102 94 93 106 112 111
152 140 140 153 164 166 170 171 154 149 150 155 157 155 153 149 143 144 150 154 160 162 163 169 176 178 165 155 127 113 111 110 89 79 88 90 94 90 86 82 86 92 110
159 158 162 175 184 173 170 161 156 152 154 158 160 159 160 157 151 150 161 172 181 185 178 185 183 180 198 219 191 161 160 157 145 114 89 79 79 83 80 74 72 78 95
160 161 165 168 173 167 164 163 162 160 159 162 166 167 165 162 160 155 137 98 157 178 184 181 178 195 202 184 178 179 171 152 140 122 117 126 130 140 144 135 116 92 96